This is the latest recevied weather packets stored in our database for station/object KM4NDI. If no packets are shown the sender has not sent any weather packets the latest 10 day(s).
| Time | Temp. | Humidity | Pressure | Rain* | Wind** | Luminosity | Snow |
|---|---|---|---|---|---|---|---|
| 1777287937 | 17.22° C | 99% | 1017.6 hPa | 0 mm | - | - | - |
| 1777286126 | 16.67° C | 99% | 1017.2 hPa | 0 mm | - | - | - |
| 1777281315 | 16.11° C | 99% | 1016.9 hPa | 0 mm | - | - | - |
| 1777280121 | 15.56° C | 99% | 1016.7 hPa | 0 mm | - | - | - |
| 1777279525 | 15.56° C | 99% | 1016.6 hPa | 0 mm | - | - | - |
| 1777278928 | 16.11° C | 99% | 1016.5 hPa | 0 mm | - | - | - |
| 1777275925 | 16.67° C | 99% | 1016.7 hPa | 0 mm | - | - | - |
| 1777274731 | 16.67° C | 99% | 1016.4 hPa | 0 mm | - | - | - |
| 1777273520 | 16.67° C | 99% | 1016.5 hPa | 0 mm | - | - | - |
| 1777269324 | 17.22° C | 99% | 1016.6 hPa | 0 mm | - | - | - |
| 1777268130 | 17.22° C | 99% | 1016.8 hPa | 0 mm | - | - | - |
| 1777266918 | 17.78° C | 99% | 1016.7 hPa | 0 mm | - | - | - |
| 1777265128 | 18.33° C | 99% | 1016.3 hPa | 0 mm | - | - | - |
| 1777261528 | 18.89° C | 99% | 1015.9 hPa | 0 mm | - | - | - |
| 1777259720 | 19.44° C | 99% | 1015.9 hPa | 0 mm | - | - | - |
| 1777258566 | 19.44° C | 99% | 1015.8 hPa | 0 mm | - | - | - |
| 1777253715 | 21.11° C | 99% | 1014.9 hPa | 0 mm | - | - | - |
| 1777238124 | 32.22° C | 54% | 1013.3 hPa | 0 mm | - | - | - |
| 1777233331 | 33.89° C | 54% | 1013.8 hPa | 0 mm | - | - | - |
| 1777229117 | 33.89° C | 61% | 1014.5 hPa | 0 mm | - | - | - |
| 1777226133 | 33.33° C | 65% | 1015.3 hPa | 0 mm | - | - | - |
| 1777220148 | 28.33° C | 90% | 1015.6 hPa | 0 mm | - | - | - |
| 1777209317 | 20° C | 99% | 1015.1 hPa | 0 mm | - | - | - |
| 1777207520 | 19.44° C | 99% | 1015 hPa | 0 mm | - | - | - |
| 1777206327 | 18.89° C | 99% | 1014.6 hPa | 0 mm | - | - | - |
* Rain latest hour (hover to see other rain measurements)
** Current wind speed in m/s (hover to see current wind gust speed)